Weather History for MMMX - October, 2011

Change the Weather History Date:

Monday, October 3, 2011

  Actual Average Record
Temperature  
Mean Temperature 64 °F -  
Max Temperature 75 °F 71 °F - ()
Min Temperature 53 °F 49 °F - ()
Degree Days  
Heating Degree Days 1    
Growing Degree Days 14 (Base 50)    
Moisture  
Dew Point 46 °F    
Average Humidity 59    
Maximum Humidity 77    
Minimum Humidity 33    
Precipitation  
Precipitation 0.00 in - - ()
Sea Level Pressure  
Sea Level Pressure 30.27 in    
Wind  
Wind Speed 6 mph ()    
Max Wind Speed 17 mph    
Max Gust Speed 28 mph    
Visibility 9.8 miles    
Events      
T = Trace of Precipitation, MM = Missing Value Source: Averaged Metar Reports

Daily Weather History Graph

Daily Weather History Graph

Search for Another Location

Airport or City:

Trip Planner

Search our weather history database for the weather conditions in past years. The results will help you decide how hot, cold, wet, or windy it might be!

Date:

Astronomy

Oct. 03, 2011 Rise Set
Actual Time 7:27 AM CDT 7:23 PM CDT
Civil Twilight 7:05 AM CDT 7:45 PM CDT
Nautical Twilight 6:40 AM CDT 8:10 PM CDT
Astronomical Twilight 6:14 AM CDT 8:35 PM CDT
Moon 1:45 PM CDT (10/3) 12:07 AM CDT (10/3)
Length of Visible Light 12h 39m
Length of Day
11h 55m
Waxing Crescent, 45% of the Moon is Illuminated
Oct 3
Waxing Crescent
Oct 3
First Quarter
Oct 11
Full
Oct 19
Last Quarter
Oct 26
New

Hourly Weather History & Observations

Time (CDT) Temp. Dew Point Humidity Pressure Visibility Wind Dir Wind Speed Gust Speed Precip Events Conditions
12:45 AM 55.4 °F 46.4 °F 72% 29.98 in 15.0 mi NNW 5.8 mph - N/A   Partly Cloudy
1:44 AM 55.4 °F 46.4 °F 72% 30.41 in 15.0 mi NNW 6.9 mph - N/A   Partly Cloudy
2:44 AM 53.6 °F 46.4 °F 77% 30.39 in 15.0 mi NNW 3.5 mph - N/A   Partly Cloudy
3:45 AM 53.6 °F 46.4 °F 77% 30.04 in 15.0 mi Calm Calm - N/A   Mostly Cloudy
4:44 AM 53.6 °F 46.4 °F 77% 30.37 in 15.0 mi Calm Calm - N/A   Mostly Cloudy
5:44 AM 55.4 °F 46.4 °F 72% 30.37 in 15.0 mi ENE 3.5 mph - N/A   Overcast
6:45 AM 53.6 °F 46.4 °F 77% 29.94 in 12.0 mi East 6.9 mph - N/A   Mostly Cloudy
7:20 AM 53.6 °F 46.4 °F 77% 30.38 in 10.0 mi ENE 8.1 mph - N/A   Overcast
7:46 AM 53.6 °F 46.4 °F 77% 30.39 in 10.0 mi East 6.9 mph - N/A   Overcast
8:26 AM 53.6 °F 46.4 °F 77% 30.41 in 10.0 mi ENE 6.9 mph - N/A   Overcast
8:48 AM 53.6 °F 46.4 °F 77% 30.41 in 8.0 mi East 6.9 mph - N/A   Overcast
9:20 AM 55.4 °F 48.2 °F 77% 30.42 in 8.0 mi ENE 5.8 mph - N/A   Overcast
9:45 AM 57.2 °F 46.4 °F 67% 30.12 in 8.0 mi NNE 5.8 mph - N/A   Overcast
10:20 AM 59.0 °F 46.4 °F 63% 30.43 in 7.0 mi NE 5.8 mph - N/A   Mostly Cloudy
10:44 AM 60.8 °F 46.4 °F 59% 30.42 in 7.0 mi NNE 5.8 mph - N/A   Mostly Cloudy
11:44 AM 62.6 °F 44.6 °F 52% 30.41 in 7.0 mi NE 6.9 mph - N/A   Scattered Clouds
11:47 AM 62.6 °F 44.6 °F 52% 30.41 in 7.0 mi NE 6.9 mph - N/A   Scattered Clouds
12:54 PM 66.2 °F 42.8 °F 43% 29.92 in 7.0 mi NW 3.5 mph - N/A   Scattered Clouds
1:46 PM 69.8 °F 42.8 °F 38% 30.36 in 7.0 mi North 5.8 mph - N/A   Scattered Clouds
1:48 PM 71.6 °F 44.6 °F 38% 30.35 in 7.0 mi NNE 5.8 mph - N/A   Scattered Clouds
2:43 PM 73.4 °F 42.8 °F 33% 30.31 in 5.0 mi NNW 8.1 mph - N/A   Scattered Clouds
3:51 PM 75.2 °F 44.6 °F 34% 29.80 in 5.0 mi NW 5.8 mph - N/A   Mostly Cloudy
4:21 PM 71.6 °F 44.6 °F 38% 30.27 in 5.0 mi North 11.5 mph - N/A   Mostly Cloudy
4:50 PM 71.6 °F 46.4 °F 41% 30.27 in 5.0 mi NNE 16.1 mph - N/A   Mostly Cloudy
5:45 PM 69.8 °F 46.4 °F 43% 30.27 in 5.0 mi NE 17.3 mph - N/A   Mostly Cloudy
6:45 PM 66.2 °F 46.4 °F 49% 30.29 in 7.0 mi North 16.1 mph - N/A   Mostly Cloudy
6:48 PM 66.2 °F 46.4 °F 49% 29.86 in 7.0 mi North 16.1 mph - N/A   Mostly Cloudy
7:52 PM 64.4 °F 44.6 °F 49% 30.33 in 12.0 mi North 17.3 mph - N/A   Mostly Cloudy
8:49 PM 60.8 °F 42.8 °F 52% 30.37 in 12.0 mi North 15.0 mph 27.6 mph N/A   Mostly Cloudy
8:51 PM 60.8 °F 42.8 °F 52% 30.37 in 12.0 mi North 15.0 mph 27.6 mph N/A   Mostly Cloudy
9:45 PM 60.8 °F 44.6 °F 55% 29.99 in 15.0 mi North 11.5 mph - N/A   Mostly Cloudy
10:46 PM 59.0 °F 46.4 °F 63% 30.41 in 15.0 mi North 10.4 mph - N/A   Overcast
11:46 PM 59.0 °F 46.4 °F 63% 30.41 in 15.0 mi North 8.1 mph - N/A   Overcast